TimeCDT,TemperatureF,Dew PointF,Humidity,Sea Level PressureIn,VisibilityMPH,Wind Direction,Wind SpeedMPH,Gust SpeedMPH,PrecipitationIn,Events,Conditions,WindDirDegrees,DateUTC
12:52 AM,80.1,61.0,52,29.88,10.0,SW,9.2,-,N/A,,Clear,220,2013-09-10 05:52:00
1:52 AM,79.0,61.0,54,29.89,10.0,SW,8.1,-,N/A,,Clear,220,2013-09-10 06:52:00
2:52 AM,75.9,60.1,58,29.90,10.0,SW,8.1,-,N/A,,Clear,220,2013-09-10 07:52:00
3:52 AM,75.9,60.1,58,29.91,10.0,SW,9.2,-,N/A,,Clear,220,2013-09-10 08:52:00
4:52 AM,75.9,60.1,58,29.91,10.0,SSW,9.2,-,N/A,,Clear,210,2013-09-10 09:52:00
5:52 AM,75.0,60.1,60,29.92,10.0,SSW,8.1,-,N/A,,Partly Cloudy,210,2013-09-10 10:52:00
6:52 AM,75.0,61.0,62,29.94,10.0,SSW,10.4,-,N/A,,Partly Cloudy,210,2013-09-10 11:52:00
7:52 AM,75.9,62.1,62,29.96,10.0,SSW,5.8,-,N/A,,Clear,210,2013-09-10 12:52:00
8:52 AM,81.0,63.0,54,29.97,10.0,SSW,11.5,-,N/A,,Clear,210,2013-09-10 13:52:00
9:52 AM,86.0,63.0,46,29.98,10.0,SSW,15.0,-,N/A,,Clear,210,2013-09-10 14:52:00
10:52 AM,90.0,64.0,42,29.98,10.0,SSW,16.1,-,N/A,,Clear,210,2013-09-10 15:52:00
11:52 AM,93.0,64.0,38,29.98,10.0,SW,17.3,24.2,N/A,,Clear,220,2013-09-10 16:52:00
12:52 PM,96.1,64.0,35,29.98,10.0,SW,15.0,25.3,N/A,,Clear,220,2013-09-10 17:52:00
1:52 PM,96.1,63.0,33,29.97,10.0,SW,18.4,23.0,N/A,,Partly Cloudy,220,2013-09-10 18:52:00
2:52 PM,96.1,63.0,33,29.96,10.0,SW,17.3,-,N/A,,Scattered Clouds,220,2013-09-10 19:52:00
3:52 PM,97.0,63.0,32,29.94,10.0,South,12.7,-,N/A,,Partly Cloudy,190,2013-09-10 20:52:00
4:52 PM,96.1,63.0,33,29.92,10.0,SSW,15.0,18.4,N/A,,Scattered Clouds,200,2013-09-10 21:52:00
5:52 PM,95.0,62.1,33,29.92,10.0,SSW,13.8,-,N/A,,Partly Cloudy,200,2013-09-10 22:52:00
6:52 PM,91.9,61.0,35,29.93,10.0,SSW,9.2,-,N/A,,Clear,200,2013-09-10 23:52:00
7:52 PM,87.1,61.0,41,29.94,10.0,South,6.9,-,N/A,,Clear,180,2013-09-11 00:52:00
8:52 PM,84.0,61.0,46,29.97,10.0,South,8.1,-,N/A,,Clear,180,2013-09-11 01:52:00
9:52 PM,82.9,59.0,44,29.99,10.0,SSW,10.4,-,N/A,,Clear,200,2013-09-11 02:52:00
10:52 PM,82.0,57.9,44,30.01,10.0,SSW,9.2,-,N/A,,Clear,210,2013-09-11 03:52:00
11:52 PM,80.1,57.9,47,30.02,10.0,SSW,6.9,-,N/A,,Clear,210,2013-09-11 04:52:00